Tracking 30298 objects as of 27-Apr-2025
HD Live streaming from Space Station
objects crossing your sky now

NADEZHDA 2

Track NADEZHDA 2 now!
10-day predictions
NADEZHDA 2 is classified as:


NORAD ID: 20508
Int'l Code: 1990-017A
Perigee: 957.8 km
Apogee: 1,023.3 km
Inclination: 83.0 °
Period: 104.8 minutes
Semi major axis: 7361 km
RCS: 2.5733 m2 (large)
Launch date: February 27, 1990
Source: Commonwealth of Independent States (former USSR) (CIS)
Launch site: PLESETSK MISSILE AND SPACE COMPLEX (PKMTR)
Your satellite tracking list
Your tracking list is empty




NASA's NSSDC Master Catalog

Two Line Element Set (TLE):
1 20508U 90017A   25117.50031382  .00000096  00000-0  84654-4 0  9996
2 20508  82.9598  21.1133 0044498 157.0849  16.4416 13.74506604763275
Source of the keplerian elements: AFSPC